Meteo orario Abercarn

Oggi, 9 Marzo, Martedi

Tempo Temperatura Precipitazioni Vento Pressione Umidità
00:00 +1°C° 0 mm 2 m/s 748 mm Hg 88%
01:00 -1°C° 0 mm 2 m/s 748 mm Hg 88%
02:00 -1°C° 0 mm 2 m/s 747 mm Hg 88%
03:00 -1°C° 0 mm 2 m/s 747 mm Hg 88%
04:00 -1°C° 0 mm 2 m/s 747 mm Hg 89%
05:00 -1°C° 0 mm 2 m/s 747 mm Hg 90%
06:00 -1°C° 0 mm 2 m/s 747 mm Hg 91%
07:00 +2°C° 0 mm 2 m/s 747 mm Hg 87%
08:00 +3°C° 0 mm 2 m/s 747 mm Hg 84%
09:00 +4°C° 0 mm 3 m/s 747 mm Hg 81%
10:00 +5°C° 0 mm 3 m/s 747 mm Hg 78%
11:00 +7°C° 0 mm 3 m/s 747 mm Hg 74%
12:00 +7°C° 0 mm 4 m/s 747 mm Hg 71%
13:00 +7°C° 0 mm 4 m/s 746 mm Hg 71%
14:00 +7°C° 0 mm 4 m/s 746 mm Hg 71%
15:00 +6°C° 0 mm 4 m/s 745 mm Hg 71%
16:00 +5°C° 0 mm 4 m/s 745 mm Hg 76%
17:00 +5°C° 0 mm 4 m/s 745 mm Hg 82%
18:00 +4°C° 0 mm 4 m/s 744 mm Hg 87%
19:00 +2°C° 0 mm 5 m/s 744 mm Hg 87%
20:00 +2°C° 0 mm 5 m/s 744 mm Hg 87%
21:00 +2°C° 0 mm 6 m/s 743 mm Hg 87%
22:00 +2°C° 0 mm 6 m/s 743 mm Hg 87%
23:00 +2°C° 0 mm 7 m/s 742 mm Hg 86%

Domani, 10 Marzo, Mercoledi

Tempo Temperatura Precipitazioni Vento Pressione Umidità
00:00 +2°C° 0 mm 7 m/s 742 mm Hg 86%
01:00 +3°C° 0.5 mm 7 m/s 741 mm Hg 88%
02:00 +2°C° 0.5 mm 8 m/s 740 mm Hg 90%
03:00 +2°C° 0.5 mm 8 m/s 739 mm Hg 93%
04:00 +2°C° 1.4 mm 8 m/s 739 mm Hg 93%
05:00 +4°C° 1.4 mm 8 m/s 738 mm Hg 94%
06:00 +4°C° 1.4 mm 8 m/s 738 mm Hg 95%
07:00 +5°C° 1 mm 8 m/s 738 mm Hg 95%
08:00 +5°C° 1 mm 8 m/s 737 mm Hg 95%
09:00 +6°C° 1 mm 8 m/s 737 mm Hg 95%
10:00 +6°C° 0.6 mm 8 m/s 736 mm Hg 96%
11:00 +6°C° 0.6 mm 7 m/s 736 mm Hg 96%
12:00 +8°C° 0.6 mm 7 m/s 736 mm Hg 97%
13:00 +8°C° 0.4 mm 7 m/s 735 mm Hg 96%
14:00 +8°C° 0.4 mm 7 m/s 734 mm Hg 96%
15:00 +9°C° 0.4 mm 7 m/s 733 mm Hg 96%
16:00 +9°C° 0.3 mm 8 m/s 732 mm Hg 95%
17:00 +8°C° 0.3 mm 9 m/s 731 mm Hg 95%
18:00 +9°C° 0.3 mm 10 m/s 731 mm Hg 94%
19:00 +9°C° 0.4 mm 11 m/s 730 mm Hg 94%
20:00 +8°C° 0.4 mm 11 m/s 730 mm Hg 94%
21:00 +8°C° 0.4 mm 12 m/s 729 mm Hg 94%
22:00 +8°C° 0.2 mm 12 m/s 729 mm Hg 90%
23:00 +7°C° 0.2 mm 13 m/s 728 mm Hg 87%

Dopodomani, 11 Marzo, Giovedi

Tempo Temperatura Precipitazioni Vento Pressione Umidità
00:00 +5°C° 0.2 mm 13 m/s 728 mm Hg 84%
01:00 +5°C° 0.1 mm 14 m/s 727 mm Hg 83%
02:00 +4°C° 0.1 mm 14 m/s 727 mm Hg 83%
03:00 +4°C° 0.1 mm 14 m/s 726 mm Hg 82%
04:00 +4°C° 0.2 mm 14 m/s 727 mm Hg 82%
05:00 +3°C° 0.2 mm 14 m/s 727 mm Hg 83%
06:00 +2°C° 0.2 mm 15 m/s 727 mm Hg 84%
07:00 +3°C° 0.4 mm 13 m/s 728 mm Hg 85%
08:00 +3°C° 0.4 mm 12 m/s 728 mm Hg 86%
09:00 +2°C° 0.4 mm 10 m/s 729 mm Hg 87%
10:00 +3°C° 0.5 mm 11 m/s 730 mm Hg 82%
11:00 +3°C° 0.5 mm 11 m/s 730 mm Hg 78%
12:00 +4°C° 0.5 mm 11 m/s 731 mm Hg 74%
13:00 +4°C° 0.4 mm 12 m/s 731 mm Hg 73%
14:00 +3°C° 0.4 mm 13 m/s 732 mm Hg 72%
15:00 +3°C° 0.4 mm 13 m/s 732 mm Hg 72%
16:00 +2°C° 0.1 mm 12 m/s 732 mm Hg 73%
17:00 +2°C° 0.1 mm 10 m/s 733 mm Hg 74%
18:00 +1°C° 0.1 mm 9 m/s 734 mm Hg 75%
19:00 +1°C° 0 mm 8 m/s 735 mm Hg 76%
20:00 0°C° 0 mm 7 m/s 735 mm Hg 77%
21:00 +1°C° 0 mm 6 m/s 736 mm Hg 78%
22:00 0°C° 0 mm 7 m/s 736 mm Hg 78%
23:00 0°C° 0 mm 7 m/s 736 mm Hg 79%

12 Marzo, Venerdi

Tempo Temperatura Precipitazioni Vento Pressione Umidità
00:00 +2°C° 0 mm 7 m/s 736 mm Hg 80%
01:00 +2°C° 0.1 mm 7 m/s 736 mm Hg 82%
02:00 +1°C° 0.1 mm 8 m/s 735 mm Hg 84%
03:00 +1°C° 0.1 mm 8 m/s 735 mm Hg 86%
04:00 +1°C° 0.4 mm 8 m/s 734 mm Hg 87%
05:00 +1°C° 0.4 mm 8 m/s 734 mm Hg 87%
06:00 +1°C° 0.4 mm 8 m/s 733 mm Hg 88%
07:00 +1°C° 1.3 mm 8 m/s 733 mm Hg 85%
08:00 +1°C° 1.3 mm 9 m/s 733 mm Hg 82%
09:00 +1°C° 1.3 mm 9 m/s 733 mm Hg 79%
10:00 +2°C° 0.1 mm 10 m/s 733 mm Hg 76%
11:00 +3°C° 0.1 mm 11 m/s 734 mm Hg 72%
12:00 +3°C° 0.1 mm 11 m/s 734 mm Hg 68%
13:00 +3°C° 0.1 mm 11 m/s 734 mm Hg 68%
14:00 +3°C° 0.1 mm 11 m/s 734 mm Hg 67%
15:00 +3°C° 0.1 mm 11 m/s 734 mm Hg 66%
16:00 +3°C° 0.1 mm 10 m/s 734 mm Hg 72%
17:00 +2°C° 0.1 mm 9 m/s 734 mm Hg 77%
18:00 +2°C° 0.1 mm 8 m/s 733 mm Hg 82%
19:00 +2°C° 0.1 mm 8 m/s 733 mm Hg 84%
20:00 +2°C° 0.1 mm 9 m/s 733 mm Hg 85%
21:00 +2°C° 0.1 mm 9 m/s 732 mm Hg 87%
22:00 +2°C° 0.9 mm 10 m/s 731 mm Hg 88%
23:00 +3°C° 0.9 mm 10 m/s 731 mm Hg 90%

13 Marzo, Sabato

Tempo Temperatura Precipitazioni Vento Pressione Umidità
00:00 +3°C° 0.9 mm 11 m/s 730 mm Hg 91%
01:00 +3°C° 0.7 mm 11 m/s 730 mm Hg 91%
02:00 +3°C° 0.7 mm 11 m/s 729 mm Hg 91%
03:00 +3°C° 0.7 mm 11 m/s 728 mm Hg 91%
04:00 +3°C° 0.5 mm 11 m/s 728 mm Hg 89%
05:00 +3°C° 0.5 mm 11 m/s 727 mm Hg 87%
06:00 +2°C° 0.5 mm 11 m/s 727 mm Hg 86%
07:00 +3°C° 0.1 mm 11 m/s 727 mm Hg 82%
08:00 +3°C° 0.1 mm 11 m/s 727 mm Hg 79%
09:00 +3°C° 0.1 mm 11 m/s 727 mm Hg 76%
10:00 +3°C° 0.2 mm 12 m/s 727 mm Hg 74%
11:00 +3°C° 0.2 mm 12 m/s 727 mm Hg 72%
12:00 +4°C° 0.2 mm 13 m/s 727 mm Hg 70%
13:00 +3°C° 0.3 mm 13 m/s 728 mm Hg 73%
14:00 +2°C° 0.3 mm 12 m/s 728 mm Hg 76%
15:00 +2°C° 0.3 mm 12 m/s 728 mm Hg 79%
16:00 +1°C° 0.1 mm 11 m/s 729 mm Hg 81%
17:00 0°C° 0.1 mm 10 m/s 730 mm Hg 83%
18:00 0°C° 0.1 mm 9 m/s 730 mm Hg 86%
19:00 0°C° 0 mm 9 m/s 731 mm Hg 84%
20:00 -1°C° 0 mm 8 m/s 733 mm Hg 83%
21:00 -1°C° 0 mm 7 m/s 734 mm Hg 81%
22:00 -1°C° 0 mm 8 m/s 734 mm Hg 82%
23:00 -1°C° 0 mm 8 m/s 735 mm Hg 82%

14 Marzo, Domenica

Tempo Temperatura Precipitazioni Vento Pressione Umidità
00:00 0°C° 0 mm 8 m/s 735 mm Hg 83%
01:00 0°C° 0.1 mm 8 m/s 736 mm Hg 83%
02:00 0°C° 0.1 mm 9 m/s 736 mm Hg 84%
03:00 0°C° 0.1 mm 9 m/s 737 mm Hg 85%
04:00 0°C° 0.1 mm 9 m/s 737 mm Hg 86%
05:00 +1°C° 0.1 mm 8 m/s 738 mm Hg 87%
06:00 +1°C° 0.1 mm 8 m/s 739 mm Hg 88%
07:00 +1°C° 0 mm 8 m/s 740 mm Hg 85%
08:00 +2°C° 0 mm 8 m/s 740 mm Hg 82%
09:00 +2°C° 0 mm 8 m/s 741 mm Hg 80%
10:00 +4°C° 0 mm 8 m/s 742 mm Hg 78%
11:00 +4°C° 0 mm 7 m/s 742 mm Hg 76%
12:00 +5°C° 0 mm 7 m/s 743 mm Hg 74%
13:00 +5°C° 0 mm 7 m/s 743 mm Hg 73%
14:00 +5°C° 0 mm 7 m/s 744 mm Hg 73%
15:00 +5°C° 0 mm 7 m/s 744 mm Hg 73%
16:00 +4°C° 0 mm 6 m/s 744 mm Hg 76%
17:00 +5°C° 0 mm 5 m/s 745 mm Hg 79%
18:00 +4°C° 0 mm 4 m/s 745 mm Hg 83%
19:00 +4°C° 0 mm 4 m/s 745 mm Hg 86%
20:00 +4°C° 0 mm 4 m/s 746 mm Hg 89%
21:00 +4°C° 0 mm 4 m/s 746 mm Hg 93%
22:00 +5°C° 0.1 mm 5 m/s 746 mm Hg 92%
23:00 +5°C° 0.1 mm 6 m/s 746 mm Hg 91%
Mostrare altro

Abbiamo bisogno del tuo consenso

Meteoprog e i nostri fornitori di servizi possono memorizzare e accedere a dati personali come cookie, identificatori di dispositivi o altre tecnologie simili sul tuo dispositivo e possono elaborare tali dati per personalizzare i contenuti e gli annunci, nonché fornire funzionalità dei social media e analizzarne il traffico.

  • Archiviare e/o accedere alle informazioni sul tuo dispositivo

    Cookie, identificatori di dispositivi o altre informazioni possono essere memorizzati o resi accessibili sul tuo dispositivo per le finalità sopra indicate.

  • Annunci e contenuti personalizzati, misurazione di annunci e contenuti, approfondimenti sul pubblico e sviluppo di prodotti

    Gli annunci e i contenuti possono essere personalizzati in base a un profilo. È possibile aggiungere più dati per personalizzare meglio annunci e contenuti. È possibile misurare il rendimento degli annunci e dei contenuti. È possibile ricavare informazioni sul pubblico che ha visto gli annunci e i contenuti. Tali dati possono essere utilizzati per sviluppare o migliorare l'esperienza, i sistemi e il software dell'utente.

Cliccando su “Accetto”, acconsenti all'uso di cookie, identificatori di dispositivo, web beacon o altre tecnologie simili. Puoi modificare le impostazioni nel browser del tuo dispositivo.

Per determinati scopi, è possibile fare affidamento su interessi legali, piuttosto che sul consenso. Puoi approfondire questo argomento consultando la nostra Informativa sulla privacy e sui cookie.